Climatologie pour Saint-Brevin les Pins
Jour • Résumé pour mai 13, 2017 Système :  Métrique    Anglais   Mixte
« - 1 jour
+ 1 jour »
Jour Semaine Mois Année Personnalisé
  Maximum : Minimum : Moyenne :
Température sous abri : -17.8 °C -10.8 °C -9.4 °C
Point de rosée : -17.8 °C -11.8 °C -10.8 °C
Humidité : Humidity % 75 % 85 %
Vitesse du vent : 0 km/h 0 km/h 14.5 km/h
Rafale : 0 km/h - -
Direction :- - WSW
Pression : 0 hPa 34073.3 hPa -
Précipitations : 0 mm    
Historical Graphs
 
 
Tableau de données pour mai 13, 2017
Heure Tempé Pt rosée Pression Vent Vitesse Rafale Humidité Taux pluie (/hr) Soleil
-17.8 °C -17.8 °C 0 hPa Calm     Humidity % 0 mm SolarRadiationWatts/m^2 W/m2 Conditions
00:00 -9.9 °C -10.6 °C 34073.3 hPa South 10.3 km/h 23.3 km/h 93 % 0 mm 0 W/m2
00:05 -9.9 °C -10.6 °C 34073.3 hPa SW 5.1 km/h 20.8 km/h 93 % 0 mm 0 W/m2
00:10 -9.9 °C -10.6 °C 34073.3 hPa SSW 10.3 km/h 20.8 km/h 93 % 0 mm 0 W/m2
00:15 -9.9 °C -10.6 °C 34073.3 hPa SW 5.1 km/h 23.3 km/h 93 % 0 mm 0 W/m2
00:20 -9.9 °C -10.6 °C 34073.3 hPa West 5.1 km/h 23.3 km/h 93 % 0 mm 0 W/m2
00:25 -9.9 °C -10.6 °C 34073.3 hPa WSW 10.3 km/h 18.2 km/h 93 % 0 mm 0 W/m2
00:30 -9.9 °C -10.6 °C 34073.3 hPa West 10.3 km/h 25.9 km/h 93 % 0 mm 0 W/m2
00:35 -9.9 °C -10.6 °C 34073.3 hPa WSW 12.9 km/h 25.9 km/h 93 % 0 mm 0 W/m2
00:40 -9.9 °C -10.6 °C 34086.9 hPa WSW 12.9 km/h 23.3 km/h 93 % 0 mm 0 W/m2
00:45 -10 °C -10.6 °C 34086.9 hPa SW 12.9 km/h 25.9 km/h 94 % 0 mm 0 W/m2
00:50 -10 °C -10.6 °C 34086.9 hPa WSW 15.6 km/h 25.9 km/h 94 % 0 mm 0 W/m2
00:55 -10 °C -10.6 °C 34086.9 hPa WSW 15.6 km/h 28.5 km/h 94 % 0 mm 0 W/m2
01:00 -10 °C -10.6 °C 34086.9 hPa West 12.9 km/h 31.1 km/h 93 % 0 mm 0 W/m2
01:05 -10.1 °C -10.7 °C 34086.9 hPa WSW 10.3 km/h 31.1 km/h 93 % 0 mm 0 W/m2
01:10 -10.2 °C -10.8 °C 34086.9 hPa West 10.3 km/h 33.6 km/h 93 % 0 mm 0 W/m2
01:15 -10.2 °C -10.8 °C 34086.9 hPa WSW 15.6 km/h 38.8 km/h 93 % 0 mm 0 W/m2
01:20 -10.2 °C -10.9 °C 34097 hPa West 20.8 km/h 38.8 km/h 93 % 0 mm 0 W/m2
01:25 -10.2 °C -10.8 °C 34097 hPa West 15.6 km/h 36.2 km/h 93 % 0 mm 0 W/m2
01:30 -10.2 °C -10.8 °C 34097 hPa West 10.3 km/h 31.1 km/h 93 % 0 mm 0 W/m2
01:35 -10.2 °C -10.9 °C 34097 hPa WSW 15.6 km/h 38.8 km/h 92 % 0 mm 0 W/m2
01:40 -10.2 °C -10.9 °C 34097 hPa West 7.7 km/h 38.8 km/h 92 % 0 mm 0 W/m2
01:45 -10.2 °C -10.9 °C 34097 hPa West 7.7 km/h 31.1 km/h 92 % 0 mm 0 W/m2
01:50 -10.2 °C -10.9 °C 34097 hPa WNW 5.1 km/h 28.5 km/h 92 % 0 mm 0 W/m2
01:55 -10.3 °C -11 °C 34097 hPa West 15.6 km/h 28.5 km/h 92 % 0 mm 0 W/m2
02:00 -10.3 °C -11.1 °C 34097 hPa West 7.7 km/h 31.1 km/h 91 % 0 mm 0 W/m2
02:05 -10.3 °C -11.1 °C 34097 hPa West 2.6 km/h 31.1 km/h 91 % 0 mm 0 W/m2
02:10 -10.3 °C -11.1 °C 34107.2 hPa West 15.6 km/h 23.3 km/h 91 % 0 mm 0 W/m2
02:15 -10.3 °C -11.1 °C 34097 hPa West 5.1 km/h 28.5 km/h 91 % 0 mm 0 W/m2
02:20 -10.3 °C -11.1 °C 34107.2 hPa WSW 5.1 km/h 28.5 km/h 91 % 0 mm 0 W/m2
02:25 -10.2 °C -11.1 °C 34107.2 hPa WNW 12.9 km/h 28.5 km/h 91 % 0 mm 0 W/m2
02:30 -10.2 °C -11.1 °C 34107.2 hPa West 10.3 km/h 28.5 km/h 91 % 0 mm 0 W/m2
02:35 -10.2 °C -10.9 °C 34107.2 hPa WNW 7.7 km/h 31.1 km/h 92 % 0 mm 0 W/m2
02:40 -10.2 °C -10.9 °C 34107.2 hPa West 15.6 km/h 31.1 km/h 92 % 0 mm 0 W/m2
02:45 -10.3 °C -11.2 °C 34107.2 hPa WNW 18.2 km/h 31.1 km/h 91 % 0 mm 0 W/m2
02:50 -10.4 °C -11.2 °C 34107.2 hPa WSW 20.8 km/h 31.1 km/h 91 % 0 mm 0 W/m2
02:55 -10.3 °C -11.2 °C 34107.2 hPa WSW 10.3 km/h 31.1 km/h 90 % 0 mm 0 W/m2
03:00 -10.3 °C -11.2 °C 34107.2 hPa West 12.9 km/h 31.1 km/h 90 % 0 mm 0 W/m2
03:05 -10.3 °C -11.2 °C 34107.2 hPa West 18.2 km/h 28.5 km/h 90 % 0 mm 0 W/m2
03:10 -10.4 °C -11.3 °C 34107.2 hPa West 10.3 km/h 44.1 km/h 90 % 0 mm 0 W/m2
03:15 -10.4 °C -11.3 °C 34107.2 hPa West 7.7 km/h 44.1 km/h 90 % 0 mm 0 W/m2
03:20 -10.4 °C -11.3 °C 34107.2 hPa West 7.7 km/h 23.3 km/h 90 % 0 mm 0 W/m2
03:25 -10.4 °C -11.3 °C 34107.2 hPa West 10.3 km/h 28.5 km/h 90 % 0 mm 0 W/m2
03:30 -10.5 °C -11.4 °C 34107.2 hPa WNW 12.9 km/h 28.5 km/h 90 % 0 mm 0 W/m2
03:35 -10.5 °C -11.4 °C 34107.2 hPa WSW 12.9 km/h 28.5 km/h 90 % 0 mm 0 W/m2
03:40 -10.5 °C -11.4 °C 34107.2 hPa West 7.7 km/h 31.1 km/h 90 % 0 mm 0 W/m2
03:45 -10.6 °C -11.4 °C 34107.2 hPa WNW 28.5 km/h 31.1 km/h 91 % 0 mm 0 W/m2
03:50 -10.7 °C -11.6 °C 34107.2 hPa WSW 7.7 km/h 33.6 km/h 90 % 0 mm 0 W/m2
03:55 -10.7 °C -11.6 °C 34120.7 hPa WNW 10.3 km/h 33.6 km/h 90 % 0 mm 0 W/m2
04:00 -10.7 °C -11.6 °C 34120.7 hPa West 15.6 km/h 33.6 km/h 90 % 0 mm 0 W/m2
04:05 -10.7 °C -11.5 °C 34120.7 hPa West 23.3 km/h 33.6 km/h 91 % 0 mm 0 W/m2
04:10 -10.7 °C -11.4 °C 34120.7 hPa West 5.1 km/h 33.6 km/h 91 % 0 mm 0 W/m2
04:15 -10.6 °C -11.4 °C 34120.7 hPa West 10.3 km/h 31.1 km/h 91 % 0 mm 0 W/m2
04:20 -10.6 °C -11.4 °C 34120.7 hPa WNW 10.3 km/h 33.6 km/h 91 % 0 mm 0 W/m2
04:25 -10.6 °C -11.5 °C 34130.9 hPa WSW 18.2 km/h 33.6 km/h 90 % 0 mm 0 W/m2
04:30 -10.7 °C -11.4 °C 34130.9 hPa West 12.9 km/h 28.5 km/h 91 % 0 mm 0 W/m2
04:35 -10.7 °C -11.5 °C 34130.9 hPa West 15.6 km/h 28.5 km/h 91 % 0 mm 0 W/m2
04:40 -10.7 °C -11.6 °C 34130.9 hPa WNW 12.9 km/h 28.5 km/h 90 % 0 mm 0 W/m2
04:45 -10.7 °C -11.6 °C 34130.9 hPa WNW 18.2 km/h 31.1 km/h 90 % 0 mm 0 W/m2
04:50 -10.7 °C -11.6 °C 34130.9 hPa WSW 31.1 km/h 33.6 km/h 90 % 0 mm 0 W/m2
04:55 -10.7 °C -11.6 °C 34130.9 hPa WNW 15.6 km/h 33.6 km/h 90 % 0 mm 0 W/m2
05:00 -10.7 °C -11.6 °C 34130.9 hPa SW 5.1 km/h 31.1 km/h 90 % 0 mm 0 W/m2
05:05 -10.7 °C -11.6 °C 34144.4 hPa WNW 15.6 km/h 33.6 km/h 90 % 0 mm 0 W/m2
05:10 -10.6 °C -11.5 °C 34144.4 hPa West 10.3 km/h 38.8 km/h 90 % 0 mm 0 W/m2
05:20 -10.5 °C -11.5 °C 34144.4 hPa WSW 15.6 km/h 41.4 km/h 89 % 0 mm 0 W/m2
05:25 -10.6 °C -11.6 °C 34144.4 hPa West 20.8 km/h 31.1 km/h 89 % 0 mm 0 W/m2
05:30 -10.6 °C -11.6 °C 34144.4 hPa West 15.6 km/h 28.5 km/h 89 % 0 mm 0 W/m2
05:35 -10.7 °C -11.6 °C 34144.4 hPa WNW 7.7 km/h 28.5 km/h 89 % 0 mm 0 W/m2
05:40 -10.7 °C -11.6 °C 34144.4 hPa SW 15.6 km/h 28.5 km/h 90 % 0 mm 0 W/m2
05:45 -10.7 °C -11.6 °C 34144.4 hPa West 5.1 km/h 28.5 km/h 90 % 0 mm 0 W/m2
05:50 -10.7 °C -11.6 °C 34144.4 hPa WNW 15.6 km/h 33.6 km/h 90 % 0 mm 0 W/m2
05:55 -10.8 °C -11.8 °C 34144.4 hPa West 2.6 km/h 33.6 km/h 89 % 0 mm 0 W/m2
06:00 -10.7 °C -11.7 °C 34154.6 hPa West 10.3 km/h 25.9 km/h 89 % 0 mm 0 W/m2
06:05 -10.8 °C -11.8 °C 34144.4 hPa West 5.1 km/h 23.3 km/h 89 % 0 mm 0 W/m2
06:10 -10.7 °C -11.6 °C 34154.6 hPa West 5.1 km/h 23.3 km/h 90 % 0 mm 0 W/m2
06:15 -10.7 °C -11.6 °C 34154.6 hPa NNW 7.7 km/h 23.3 km/h 90 % 0 mm 0 W/m2
06:25 -10.7 °C -11.4 °C 34154.6 hPa West 10.3 km/h 23.3 km/h 91 % 0 mm 0 W/m2
06:30 -10.6 °C -11.4 °C 34154.6 hPa West 5.1 km/h 31.1 km/h 91 % 0 mm 0 W/m2
06:35 -10.5 °C -11.3 °C 34154.6 hPa West 7.7 km/h 31.1 km/h 91 % 0 mm 0 W/m2
06:40 -10.5 °C -11.3 °C 34154.6 hPa WNW 7.7 km/h 23.3 km/h 91 % 0 mm 5 W/m2
06:45 -10.5 °C -11.3 °C 34154.6 hPa SW 12.9 km/h 23.3 km/h 91 % 0 mm 11 W/m2
06:50 -10.6 °C -11.4 °C 34164.7 hPa WSW 10.3 km/h 23.3 km/h 91 % 0 mm 14 W/m2
06:55 -10.6 °C -11.4 °C 34164.7 hPa WSW 15.6 km/h 25.9 km/h 91 % 0 mm 21 W/m2
07:00 -10.6 °C -11.4 °C 34164.7 hPa WNW 10.3 km/h 25.9 km/h 91 % 0 mm 30 W/m2
07:05 -10.6 °C -11.4 °C 34164.7 hPa West 12.9 km/h 28.5 km/h 91 % 0 mm 35 W/m2
07:10 -10.6 °C -11.3 °C 34164.7 hPa West 23.3 km/h 28.5 km/h 91 % 0 mm 32 W/m2
07:15 -10.5 °C -11.4 °C 34178.3 hPa WSW 20.8 km/h 25.9 km/h 90 % 0 mm 47 W/m2
07:20 -10.5 °C -11.4 °C 34178.3 hPa West 12.9 km/h 28.5 km/h 90 % 0 mm 60 W/m2
07:25 -10.4 °C -11.3 °C 34178.3 hPa WNW 2.6 km/h 28.5 km/h 90 % 0 mm 54 W/m2
07:30 -10.4 °C -11.3 °C 34178.3 hPa West 2.6 km/h 28.5 km/h 90 % 0 mm 46 W/m2
07:35 -10.3 °C -11.3 °C 34178.3 hPa West 15.6 km/h 33.6 km/h 89 % 0 mm 51 W/m2
07:40 -10.3 °C -11.2 °C 34178.3 hPa WSW 12.9 km/h 33.6 km/h 90 % 0 mm 60 W/m2
07:45 -10.3 °C -11.2 °C 34178.3 hPa WSW 18.2 km/h 28.5 km/h 90 % 0 mm 63 W/m2
07:50 -10.3 °C -11.2 °C 34178.3 hPa SW 7.7 km/h 31.1 km/h 90 % 0 mm 77 W/m2
07:55 -10.2 °C -11.2 °C 34178.3 hPa SW 15.6 km/h 31.1 km/h 90 % 0 mm 76 W/m2
08:00 -10.2 °C -11.2 °C 34188.4 hPa SW 12.9 km/h 25.9 km/h 89 % 0 mm 76 W/m2
08:05 -10.2 °C -11.2 °C 34188.4 hPa SW 18.2 km/h 25.9 km/h 89 % 0 mm 84 W/m2
08:10 -10.2 °C -11.1 °C 34188.4 hPa Calm   23.3 km/h 90 % 0 mm 86 W/m2
08:15 -10.2 °C -11.1 °C 34188.4 hPa Calm   20.8 km/h 90 % 0 mm 102 W/m2
08:20 -10.1 °C -11 °C 34188.4 hPa SW 10.3 km/h 20.8 km/h 90 % 0 mm 113 W/m2
08:25 -10.1 °C -11 °C 34188.4 hPa SSW 5.1 km/h 20.8 km/h 90 % 0 mm 83 W/m2
08:30 -10.1 °C -11 °C 34198.6 hPa SW 7.7 km/h 20.8 km/h 90 % 0 mm 158 W/m2
08:35 -10 °C -10.9 °C 34198.6 hPa SW 18.2 km/h 23.3 km/h 90 % 0 mm 162 W/m2
08:40 -9.9 °C -10.8 °C 34198.6 hPa SW 15.6 km/h 23.3 km/h 90 % 0 mm 185 W/m2
08:45 -9.8 °C -10.7 °C 34198.6 hPa WSW 7.7 km/h 18.2 km/h 90 % 0 mm 165 W/m2
08:50 -9.8 °C -10.8 °C 34212.1 hPa WSW 7.7 km/h 18.2 km/h 89 % 0 mm 88 W/m2
08:55 -9.9 °C -10.9 °C 34212.1 hPa West 2.6 km/h 25.9 km/h 89 % 0 mm 100 W/m2
09:00 -9.9 °C -10.9 °C 34212.1 hPa WSW 12.9 km/h 25.9 km/h 89 % 0 mm 118 W/m2
09:05 -9.9 °C -10.9 °C 34212.1 hPa SW 7.7 km/h 25.9 km/h 90 % 0 mm 121 W/m2
09:10 -9.9 °C -10.9 °C 34222.3 hPa WSW 5.1 km/h 18.2 km/h 90 % 0 mm 121 W/m2
09:15 -9.9 °C -10.8 °C 34222.3 hPa SW 5.1 km/h 18.2 km/h 90 % 0 mm 116 W/m2
09:20 -9.9 °C -10.8 °C 34222.3 hPa SSW 5.1 km/h 18.2 km/h 90 % 0 mm 128 W/m2
09:25 -9.9 °C -10.8 °C 34222.3 hPa West 5.1 km/h 23.3 km/h 90 % 0 mm 178 W/m2
09:30 -9.8 °C -10.7 °C 34222.3 hPa WSW 5.1 km/h 33.6 km/h 90 % 0 mm 234 W/m2
09:35 -9.7 °C -10.6 °C 34235.8 hPa SSW 10.3 km/h 33.6 km/h 90 % 0 mm 243 W/m2
09:40 -9.7 °C -10.6 °C 34222.3 hPa SSW 18.2 km/h 25.9 km/h 90 % 0 mm 221 W/m2
09:45 -9.7 °C -10.7 °C 34235.8 hPa WSW 2.6 km/h 23.3 km/h 89 % 0 mm 202 W/m2
09:50 -9.6 °C -10.5 °C 34235.8 hPa SW 10.3 km/h 23.3 km/h 90 % 0 mm 288 W/m2
09:55 -9.5 °C -10.5 °C 34235.8 hPa SSW 15.6 km/h 23.3 km/h 89 % 0 mm 276 W/m2
10:00 -9.5 °C -10.5 °C 34235.8 hPa SW 2.6 km/h 23.3 km/h 89 % 0 mm 264 W/m2
10:05 -9.4 °C -10.4 °C 34235.8 hPa WSW 12.9 km/h 18.2 km/h 89 % 0 mm 246 W/m2
10:10 -9.4 °C -10.6 °C 34235.8 hPa SSW 15.6 km/h 25.9 km/h 87 % 0 mm 248 W/m2
10:15 -9.5 °C -10.6 °C 34235.8 hPa SSW 10.3 km/h 25.9 km/h 88 % 0 mm 313 W/m2
10:20 -9.4 °C -10.6 °C 34246 hPa SSW 15.6 km/h 25.9 km/h 87 % 0 mm 355 W/m2
10:25 -9.4 °C -10.5 °C 34246 hPa WSW 10.3 km/h 33.6 km/h 88 % 0 mm 380 W/m2
10:30 -9.3 °C -10.4 °C 34246 hPa SW 25.9 km/h 33.6 km/h 88 % 0 mm 352 W/m2
10:35 -9.3 °C -10.6 °C 34246 hPa SW 15.6 km/h 25.9 km/h 86 % 0 mm 237 W/m2
10:40 -9.3 °C -10.4 °C 34246 hPa South 15.6 km/h 25.9 km/h 87 % 0 mm 301 W/m2
10:45 -9.2 °C -10.4 °C 34256.2 hPa SW 18.2 km/h 25.9 km/h 86 % 0 mm 304 W/m2
10:50 -9.2 °C -10.5 °C 34256.2 hPa SSW 18.2 km/h 28.5 km/h 86 % 0 mm 290 W/m2
10:55 -9 °C -10.3 °C 34256.2 hPa WSW 10.3 km/h 33.6 km/h 86 % 0 mm 367 W/m2
11:00 -8.9 °C -10.3 °C 34256.2 hPa WSW 18.2 km/h 33.6 km/h 85 % 0 mm 299 W/m2
11:05 -9 °C -10.4 °C 34256.2 hPa WSW 15.6 km/h 33.6 km/h 85 % 0 mm 357 W/m2
11:10 -9 °C -10.3 °C 34256.2 hPa SW 15.6 km/h 28.5 km/h 86 % 0 mm 434 W/m2
11:15 -8.9 °C -10.3 °C 34256.2 hPa WSW 10.3 km/h 36.2 km/h 85 % 0 mm 868 W/m2
11:20 -8.7 °C -10.1 °C 34269.7 hPa SW 20.8 km/h 38.8 km/h 85 % 0 mm 830 W/m2
11:25 -8.6 °C -10.2 °C 34269.7 hPa SSW 12.9 km/h 38.8 km/h 83 % 0 mm 761 W/m2
11:30 -8.7 °C -10.2 °C 34269.7 hPa SW 10.3 km/h 36.2 km/h 84 % 0 mm 759 W/m2
11:35 -8.8 °C -10.2 °C 34269.7 hPa West 5.1 km/h 36.2 km/h 85 % 0 mm 320 W/m2
11:40 -8.8 °C -10.3 °C 34269.7 hPa SSW 20.8 km/h 36.2 km/h 84 % 0 mm 527 W/m2
11:45 -8.8 °C -10.2 °C 34269.7 hPa SSW 20.8 km/h 38.8 km/h 85 % 0 mm 766 W/m2
11:50 -8.8 °C -10.3 °C 34269.7 hPa West 20.8 km/h 38.8 km/h 84 % 0 mm 786 W/m2
11:55 -8.7 °C -10.2 °C 34279.9 hPa SW 12.9 km/h 36.2 km/h 84 % 0 mm 796 W/m2
12:00 -8.4 °C -9.9 °C 34279.9 hPa SSW 25.9 km/h 33.6 km/h 84 % 0 mm 807 W/m2
12:05 -8.3 °C -10.1 °C 34279.9 hPa SSW 12.9 km/h 31.1 km/h 82 % 0 mm 810 W/m2
12:10 -8.5 °C -10.2 °C 34279.9 hPa SSW 15.6 km/h 44.1 km/h 82 % 0 mm 814 W/m2
12:15 -8.6 °C -10.3 °C 34279.9 hPa SSW 23.3 km/h 44.1 km/h 82 % 0 mm 824 W/m2
12:20 -8.4 °C -9.9 °C 34279.9 hPa WSW 12.9 km/h 36.2 km/h 84 % 0 mm 824 W/m2
12:25 -8.4 °C -10.2 °C 34279.9 hPa SW 7.7 km/h 31.1 km/h 82 % 0 mm 833 W/m2
12:30 -8.3 °C -9.9 °C 34279.9 hPa WSW 10.3 km/h 36.2 km/h 83 % 0 mm 844 W/m2
12:35 -8.4 °C -10.1 °C 34293.4 hPa SSW 10.3 km/h 36.2 km/h 82 % 0 mm 851 W/m2
12:40 -8.4 °C -10.3 °C 34293.4 hPa SW 18.2 km/h 33.6 km/h 80 % 0 mm 860 W/m2
12:45 -8.2 °C -10.1 °C 34293.4 hPa WSW 20.8 km/h 31.1 km/h 81 % 0 mm 882 W/m2
12:50 -8 °C -9.9 °C 34293.4 hPa WSW 36.2 km/h 36.2 km/h 80 % 0 mm 865 W/m2
12:55 -8.2 °C -10.2 °C 34293.4 hPa WNW 12.9 km/h 41.4 km/h 80 % 0 mm 865 W/m2
13:05 -8.4 °C -10.3 °C 34293.4 hPa SW 25.9 km/h 44.1 km/h 80 % 0 mm 875 W/m2
13:10 -8.2 °C -9.9 °C 34293.4 hPa West 10.3 km/h 44.1 km/h 82 % 0 mm 882 W/m2
13:15 -8.2 °C -10.1 °C 34293.4 hPa SSW 23.3 km/h 33.6 km/h 81 % 0 mm 879 W/m2
13:20 -8.2 °C -10.1 °C 34303.6 hPa WSW 15.6 km/h 31.1 km/h 80 % 0 mm 884 W/m2
13:25 -8.1 °C -9.9 °C 34303.6 hPa West 12.9 km/h 31.1 km/h 81 % 0 mm 886 W/m2
13:30 -8.2 °C -10.2 °C 34303.6 hPa West 36.2 km/h 41.4 km/h 80 % 0 mm 888 W/m2
13:35 -8.3 °C -10.2 °C 34303.6 hPa WSW 23.3 km/h 41.4 km/h 81 % 0 mm 891 W/m2
13:40 -8.2 °C -10.1 °C 34303.6 hPa WSW 28.5 km/h 41.4 km/h 80 % 0 mm 902 W/m2
13:45 -8.3 °C -10 °C 34303.6 hPa WSW 15.6 km/h 41.4 km/h 82 % 0 mm 907 W/m2
13:50 -8.4 °C -10.1 °C 34303.6 hPa SW 2.6 km/h 41.4 km/h 82 % 0 mm 898 W/m2
13:55 -8.1 °C -9.9 °C 34303.6 hPa WSW 23.3 km/h 41.4 km/h 81 % 0 mm 900 W/m2
14:00 -8.3 °C -10.1 °C 34303.6 hPa WSW 31.1 km/h 38.8 km/h 81 % 0 mm 944 W/m2
14:05 -8.3 °C -10.1 °C 34303.6 hPa WSW 20.8 km/h 38.8 km/h 82 % 0 mm 946 W/m2
14:10 -8.2 °C -9.8 °C 34303.6 hPa WSW 36.2 km/h 38.8 km/h 83 % 0 mm 914 W/m2
14:15 -8.3 °C -10.2 °C 34313.7 hPa WSW 18.2 km/h 38.8 km/h 81 % 0 mm 1005 W/m2
14:20 -8.2 °C -10.1 °C 34313.7 hPa West 7.7 km/h 38.8 km/h 81 % 0 mm 942 W/m2
14:25 -7.9 °C -9.8 °C 34313.7 hPa SW 10.3 km/h 36.2 km/h 81 % 0 mm 932 W/m2
14:30 -8.2 °C -10.2 °C 34313.7 hPa West 20.8 km/h 41.4 km/h 79 % 0 mm 911 W/m2
14:35 -8.2 °C -10 °C 34313.7 hPa WSW 7.7 km/h 41.4 km/h 81 % 0 mm 844 W/m2
14:40 -8.2 °C -10.1 °C 34313.7 hPa West 12.9 km/h 36.2 km/h 80 % 0 mm 911 W/m2
14:45 -8.4 °C -10.3 °C 34313.7 hPa SW 18.2 km/h 33.6 km/h 80 % 0 mm 896 W/m2
14:50 -8.3 °C -10.3 °C 34313.7 hPa West 12.9 km/h 33.6 km/h 80 % 0 mm 879 W/m2
14:55 -8.2 °C -9.9 °C 34313.7 hPa WNW 15.6 km/h 33.6 km/h 82 % 0 mm 879 W/m2
15:00 -7.9 °C -10.1 °C 34313.7 hPa West 20.8 km/h 25.9 km/h 78 % 0 mm 884 W/m2
15:05 -8.1 °C -10 °C 34313.7 hPa South 5.1 km/h 38.8 km/h 80 % 0 mm 860 W/m2
15:10 -8.1 °C -10.2 °C 34313.7 hPa SSW 10.3 km/h 38.8 km/h 78 % 0 mm 881 W/m2
15:15 -8.1 °C -10.1 °C 34313.7 hPa West 7.7 km/h 31.1 km/h 80 % 0 mm 977 W/m2
15:20 -8.3 °C -10.2 °C 34327.3 hPa WNW 20.8 km/h 31.1 km/h 80 % 0 mm 881 W/m2
15:25 -8.2 °C -10.1 °C 34327.3 hPa SSW 7.7 km/h 33.6 km/h 80 % 0 mm 867 W/m2
15:30 -8.3 °C -10.2 °C 34327.3 hPa WSW 20.8 km/h 44.1 km/h 80 % 0 mm 854 W/m2
15:35 -8.3 °C -10.2 °C 34327.3 hPa West 7.7 km/h 44.1 km/h 81 % 0 mm 856 W/m2
15:40 -8.4 °C -10.4 °C 34327.3 hPa SSW 20.8 km/h 38.8 km/h 79 % 0 mm 847 W/m2
15:45 -8.3 °C -10.1 °C 34327.3 hPa West 15.6 km/h 41.4 km/h 82 % 0 mm 826 W/m2
15:50 -8.2 °C -10.2 °C 34337.4 hPa WSW 5.1 km/h 41.4 km/h 80 % 0 mm 817 W/m2
15:55 -8.2 °C -10.3 °C 34337.4 hPa West 23.3 km/h 41.4 km/h 78 % 0 mm 810 W/m2
16:00 -8.3 °C -10.1 °C 34327.3 hPa Calm   36.2 km/h 81 % 0 mm 791 W/m2
16:05 -8.2 °C -10.1 °C 34337.4 hPa WSW 25.9 km/h 41.4 km/h 80 % 0 mm 782 W/m2
16:10 -8.2 °C -10.3 °C 34337.4 hPa West 31.1 km/h 41.4 km/h 78 % 0 mm 779 W/m2
16:15 -8.4 °C -10.4 °C 34337.4 hPa WSW 20.8 km/h 41.4 km/h 79 % 0 mm 768 W/m2
16:20 -8.3 °C -10.3 °C 34337.4 hPa West 28.5 km/h 46.7 km/h 80 % 0 mm 759 W/m2
16:25 -8.3 °C -10.4 °C 34337.4 hPa SSW 5.1 km/h 46.7 km/h 79 % 0 mm 745 W/m2
16:30 -8.2 °C -10.4 °C 34337.4 hPa West 18.2 km/h 46.7 km/h 78 % 0 mm 738 W/m2
16:35 -8.2 °C -10.3 °C 34337.4 hPa SSW 15.6 km/h 46.7 km/h 79 % 0 mm 731 W/m2
16:40 -8.2 °C -10.4 °C 34337.4 hPa WSW 31.1 km/h 44.1 km/h 78 % 0 mm 721 W/m2
16:45 -8.4 °C -10.4 °C 34337.4 hPa SW 15.6 km/h 36.2 km/h 79 % 0 mm 707 W/m2
16:50 -8.4 °C -10.6 °C 34337.4 hPa West 12.9 km/h 36.2 km/h 78 % 0 mm 698 W/m2
16:55 -8.4 °C -10.5 °C 34337.4 hPa West 18.2 km/h 38.8 km/h 78 % 0 mm 686 W/m2
17:00 -8.2 °C -10.2 °C 34337.4 hPa South 2.6 km/h 38.8 km/h 80 % 0 mm 675 W/m2
17:05 -8.1 °C -10.5 °C 34337.4 hPa WSW 20.8 km/h 36.2 km/h 76 % 0 mm 663 W/m2
17:10 -8.5 °C -10.5 °C 34337.4 hPa SSW 15.6 km/h 36.2 km/h 79 % 0 mm 654 W/m2
17:15 -8.4 °C -10.3 °C 34337.4 hPa SW 18.2 km/h 31.1 km/h 80 % 0 mm 642 W/m2
17:20 -8.4 °C -10.5 °C 34337.4 hPa SW 18.2 km/h 41.4 km/h 79 % 0 mm 631 W/m2
17:25 -8.6 °C -10.6 °C 34337.4 hPa SW 18.2 km/h 41.4 km/h 80 % 0 mm 615 W/m2
17:30 -8.5 °C -10.6 °C 34337.4 hPa SSW 12.9 km/h 33.6 km/h 79 % 0 mm 605 W/m2
17:35 -8.5 °C -10.6 °C 34337.4 hPa West 10.3 km/h 38.8 km/h 78 % 0 mm 592 W/m2
17:40 -8.7 °C -10.6 °C 34337.4 hPa WSW 20.8 km/h 41.4 km/h 80 % 0 mm 577 W/m2
17:45 -8.7 °C -10.7 °C 34337.4 hPa West 20.8 km/h 41.4 km/h 79 % 0 mm 568 W/m2
17:50 -8.7 °C -10.8 °C 34337.4 hPa SSW 15.6 km/h 33.6 km/h 78 % 0 mm 547 W/m2
17:55 -8.7 °C -10.9 °C 34337.4 hPa WNW 18.2 km/h 41.4 km/h 78 % 0 mm 540 W/m2
18:00 -8.6 °C -10.8 °C 34337.4 hPa SSW 20.8 km/h 41.4 km/h 77 % 0 mm 522 W/m2
18:05 -8.7 °C -10.9 °C 34337.4 hPa SW 15.6 km/h 36.2 km/h 77 % 0 mm 555 W/m2
18:10 -8.6 °C -10.7 °C 34337.4 hPa SW 20.8 km/h 36.2 km/h 78 % 0 mm 531 W/m2
18:15 -8.6 °C -10.8 °C 34337.4 hPa WSW 15.6 km/h 36.2 km/h 77 % 0 mm 492 W/m2
18:20 -8.7 °C -10.9 °C 34337.4 hPa West 12.9 km/h 44.1 km/h 77 % 0 mm 485 W/m2
18:25 -8.6 °C -10.8 °C 34337.4 hPa South 33.6 km/h 44.1 km/h 77 % 0 mm 471 W/m2
18:30 -8.4 °C -10.6 °C 34337.4 hPa SW 12.9 km/h 38.8 km/h 78 % 0 mm 461 W/m2
18:35 -8.4 °C -10.6 °C 34337.4 hPa South 12.9 km/h 33.6 km/h 78 % 0 mm 443 W/m2
18:40 -8.3 °C -10.8 °C 34337.4 hPa SSW 15.6 km/h 36.2 km/h 75 % 0 mm 441 W/m2
18:45 -8.4 °C -10.9 °C 34337.4 hPa SSW 18.2 km/h 36.2 km/h 75 % 0 mm 420 W/m2
18:50 -8.4 °C -10.8 °C 34337.4 hPa SW 10.3 km/h 33.6 km/h 76 % 0 mm 415 W/m2
18:55 -8.6 °C -10.9 °C 34347.6 hPa WSW 23.3 km/h 41.4 km/h 76 % 0 mm 204 W/m2
19:00 -8.7 °C -10.9 °C 34337.4 hPa SW 20.8 km/h 41.4 km/h 78 % 0 mm 244 W/m2
19:05 -8.9 °C -11 °C 34347.6 hPa WNW 15.6 km/h 33.6 km/h 78 % 0 mm 250 W/m2
19:10 -9 °C -11 °C 34347.6 hPa West 25.9 km/h 36.2 km/h 79 % 0 mm 288 W/m2
19:15 -8.9 °C -10.7 °C 34337.4 hPa SW 15.6 km/h 36.2 km/h 81 % 0 mm 325 W/m2
19:25 -8.8 °C -10.9 °C 34337.4 hPa WSW 25.9 km/h 31.1 km/h 78 % 0 mm 274 W/m2
19:30 -8.8 °C -10.9 °C 34337.4 hPa SW 23.3 km/h 33.6 km/h 78 % 0 mm 258 W/m2
19:35 -8.8 °C -11.2 °C 34347.6 hPa WSW 15.6 km/h 33.6 km/h 76 % 0 mm 246 W/m2
19:40 -8.9 °C -11.1 °C 34347.6 hPa SW 18.2 km/h 41.4 km/h 77 % 0 mm 230 W/m2
19:45 -8.9 °C -11 °C 34347.6 hPa SSW 18.2 km/h 41.4 km/h 78 % 0 mm 214 W/m2
19:50 -8.9 °C -11.1 °C 34347.6 hPa SSW 12.9 km/h 31.1 km/h 77 % 0 mm 195 W/m2
19:55 -8.9 °C -11.1 °C 34347.6 hPa SSW 23.3 km/h 31.1 km/h 78 % 0 mm 172 W/m2
20:00 -9 °C -11.2 °C 34347.6 hPa SSW 31.1 km/h 38.8 km/h 77 % 0 mm 155 W/m2
20:05 -9.1 °C -11.3 °C 34347.6 hPa South 7.7 km/h 38.8 km/h 77 % 0 mm 137 W/m2
20:10 -9.1 °C -11.3 °C 34347.6 hPa SW 10.3 km/h 36.2 km/h 77 % 0 mm 65 W/m2
20:15 -9.2 °C -11.3 °C 34347.6 hPa South 20.8 km/h 36.2 km/h 78 % 0 mm 51 W/m2
20:20 -9.3 °C -11.2 °C 34347.6 hPa SSW 7.7 km/h 36.2 km/h 80 % 0 mm 58 W/m2
20:25 -9.3 °C -11.2 °C 34347.6 hPa SSW 18.2 km/h 28.5 km/h 80 % 0 mm 56 W/m2
20:30 -9.3 °C -11.1 °C 34347.6 hPa SSW 12.9 km/h 28.5 km/h 81 % 0 mm 39 W/m2
20:35 -9.3 °C -11 °C 34361.1 hPa SSW 12.9 km/h 38.8 km/h 82 % 0 mm 28 W/m2
20:40 -9.3 °C -11.1 °C 34361.1 hPa SSW 20.8 km/h 38.8 km/h 82 % 0 mm 35 W/m2
20:45 -9.3 °C -11.1 °C 34361.1 hPa South 10.3 km/h 23.3 km/h 82 % 0 mm 39 W/m2
20:50 -9.3 °C -10.9 °C 34361.1 hPa South 15.6 km/h 33.6 km/h 83 % 0 mm 33 W/m2
20:55 -9.4 °C -11 °C 34361.1 hPa West 10.3 km/h 33.6 km/h 83 % 0 mm 16 W/m2
21:00 -9.4 °C -10.9 °C 34361.1 hPa SSW 18.2 km/h 36.2 km/h 84 % 0 mm 11 W/m2
21:05 -9.5 °C -10.9 °C 34361.1 hPa SSW 23.3 km/h 36.2 km/h 84 % 0 mm 9 W/m2
21:10 -9.6 °C -10.9 °C 34361.1 hPa SSW 18.2 km/h 41.4 km/h 85 % 0 mm 7 W/m2
21:15 -9.6 °C -10.9 °C 34361.1 hPa SSW 20.8 km/h 41.4 km/h 85 % 0 mm 7 W/m2
21:20 -9.6 °C -10.9 °C 34371.3 hPa South 18.2 km/h 36.2 km/h 85 % 0 mm 7 W/m2
21:25 -9.6 °C -10.8 °C 34371.3 hPa SSW 23.3 km/h 36.2 km/h 86 % 0 mm 0 W/m2
21:30 -9.6 °C -10.8 °C 34371.3 hPa SSW 12.9 km/h 33.6 km/h 86 % 0 mm 0 W/m2
21:35 -9.6 °C -10.8 °C 34371.3 hPa South 10.3 km/h 33.6 km/h 86 % 0 mm 0 W/m2
21:40 -9.5 °C -10.8 °C 34371.3 hPa SW 10.3 km/h 33.6 km/h 86 % 0 mm 0 W/m2
21:45 -9.6 °C -10.8 °C 34371.3 hPa South 10.3 km/h 36.2 km/h 86 % 0 mm 0 W/m2
21:50 -9.6 °C -10.8 °C 34371.3 hPa South 18.2 km/h 36.2 km/h 86 % 0 mm 0 W/m2
22:00 -9.6 °C -10.8 °C 34371.3 hPa South 15.6 km/h 33.6 km/h 86 % 0 mm 0 W/m2
22:05 -9.6 °C -10.8 °C 34371.3 hPa South 10.3 km/h 33.6 km/h 86 % 0 mm 0 W/m2
22:10 -9.6 °C -10.8 °C 34371.3 hPa SSE 28.5 km/h 33.6 km/h 86 % 0 mm 0 W/m2
22:15 -9.6 °C -10.8 °C 34384.8 hPa SW 12.9 km/h 31.1 km/h 86 % 0 mm 0 W/m2
22:20 -9.6 °C -10.8 °C 34384.8 hPa SW 15.6 km/h 33.6 km/h 86 % 0 mm 0 W/m2
22:25 -9.6 °C -10.8 °C 34384.8 hPa SSW 18.2 km/h 33.6 km/h 86 % 0 mm 0 W/m2
22:30 -9.5 °C -10.8 °C 34384.8 hPa South 20.8 km/h 25.9 km/h 86 % 0 mm 0 W/m2
22:35 -9.5 °C -10.8 °C 34395 hPa South 15.6 km/h 36.2 km/h 86 % 0 mm 0 W/m2
22:40 -9.5 °C -10.7 °C 34395 hPa SW 18.2 km/h 36.2 km/h 87 % 0 mm 0 W/m2
22:45 -9.6 °C -10.7 °C 34395 hPa SSW 31.1 km/h 31.1 km/h 87 % 0 mm 0 W/m2
22:50 -9.6 °C -10.8 °C 34395 hPa South 12.9 km/h 41.4 km/h 86 % 0 mm 0 W/m2
22:55 -9.6 °C -10.8 °C 34395 hPa SSW 23.3 km/h 41.4 km/h 86 % 0 mm 0 W/m2
23:00 -9.6 °C -10.8 °C 34395 hPa South 33.6 km/h 36.2 km/h 86 % 0 mm 0 W/m2
23:05 -9.6 °C -10.8 °C 34395 hPa South 18.2 km/h 36.2 km/h 86 % 0 mm 0 W/m2
23:10 -9.5 °C -10.8 °C 34395 hPa SW 15.6 km/h 36.2 km/h 86 % 0 mm 0 W/m2
23:15 -9.6 °C -10.8 °C 34395 hPa South 7.7 km/h 28.5 km/h 86 % 0 mm 0 W/m2
23:20 -9.6 °C -10.8 °C 34395 hPa SSE 18.2 km/h 31.1 km/h 86 % 0 mm 0 W/m2
23:25 -9.6 °C -10.9 °C 34395 hPa SSW 15.6 km/h 33.6 km/h 85 % 0 mm 0 W/m2
23:30 -9.6 °C -10.9 °C 34395 hPa South 7.7 km/h 33.6 km/h 85 % 0 mm 0 W/m2
23:35 -9.6 °C -10.9 °C 34395 hPa SSW 18.2 km/h 31.1 km/h 85 % 0 mm 0 W/m2
23:40 -9.6 °C -11.1 °C 34395 hPa SSW 15.6 km/h 31.1 km/h 84 % 0 mm 0 W/m2
23:45 -9.6 °C -11 °C 34395 hPa South 15.6 km/h 33.6 km/h 84 % 0 mm 0 W/m2
23:50 -9.6 °C -11 °C 34395 hPa South 15.6 km/h 38.8 km/h 84 % 0 mm 0 W/m2
23:55 -9.5 °C -11 °C 34395 hPa SSE 12.9 km/h 38.8 km/h 84 % 0 mm 0 W/m2
Avec l'autorisation de Weather Underground - 1.75 mb